owner,sensor,date,latitude,longitude,vertical_datum,wind_speed,wind_to_direction,wind_speed_of_gust,qcFlag 
SCCF RECON,ioos:station:SCCF:53:1,2015-02-01T00:00:00Z,26.6493,-81.8810,2.11,4.2,78.4,-9999.0,'1111122,1111122,1111122' 
SCCF RECON,ioos:station:SCCF:53:1,2015-02-01T00:15:00Z,26.6493,-81.8810,2.11,4.9,78.3,-9999.0,'1111122,1111122,1111122' 
SCCF RECON,ioos:station:SCCF:53:1,2015-02-01T00:30:00Z,26.6493,-81.8810,2.11,4.1,81.0,-9999.0,'1111122,1111122,1111122' 
SCCF RECON,ioos:station:SCCF:53:1,2015-02-01T00:45:00Z,26.6493,-81.8810,2.11,4.7,69.8,-9999.0,'1111122,1111122,1111122' 
SCCF RECON,ioos:station:SCCF:53:1,2015-02-01T01:00:00Z,26.6493,-81.8810,2.11,5.2,83.4,-9999.0,'1111122,1111122,1111122' 
SCCF RECON,ioos:station:SCCF:53:1,2015-02-01T01:15:00Z,26.6493,-81.8810,2.11,5.1,84.9,-9999.0,'1111122,1111122,1111122' 
SCCF RECON,ioos:station:SCCF:53:1,2015-02-01T01:30:00Z,26.6493,-81.8810,2.11,3.6,71.1,-9999.0,'1111122,1111122,1111122' 
SCCF RECON,ioos:station:SCCF:53:1,2015-02-01T01:45:00Z,26.6493,-81.8810,2.11,4.2,72.7,-9999.0,'1111122,1111122,1111122' 
SCCF RECON,ioos:station:SCCF:53:1,2015-02-01T02:00:00Z,26.6493,-81.8810,2.11,3.9,67.7,-9999.0,'1111122,1111122,1111122' 
SCCF RECON,ioos:station:SCCF:53:1,2015-02-01T02:15:00Z,26.6493,-81.8810,2.11,3.8,66.8,-9999.0,'1111122,1111122,1111122' 
SCCF RECON,ioos:station:SCCF:53:1,2015-02-01T02:30:00Z,26.6493,-81.8810,2.11,3.1,76.7,-9999.0,'1111122,1111122,1111122' 
SCCF RECON,ioos:station:SCCF:53:1,2015-02-01T02:45:00Z,26.6493,-81.8810,2.11,3.8,83.5,-9999.0,'1111122,1111122,1111122' 
SCCF RECON,ioos:station:SCCF:53:1,2015-02-01T03:00:00Z,26.6493,-81.8810,2.11,3.5,87.8,-9999.0,'1111122,1111122,1111122' 
SCCF RECON,ioos:station:SCCF:53:1,2015-02-01T03:15:00Z,26.6493,-81.8810,2.11,3.0,74.4,-9999.0,'1111122,1111122,1111122' 
SCCF RECON,ioos:station:SCCF:53:1,2015-02-01T03:30:00Z,26.6493,-81.8810,2.11,3.2,64.1,-9999.0,'1111122,1111122,1111122' 
SCCF RECON,ioos:station:SCCF:53:1,2015-02-01T03:45:00Z,26.6493,-81.8810,2.11,4.2,70.0,-9999.0,'1111122,1111122,1111122' 
SCCF RECON,ioos:station:SCCF:53:1,2015-02-01T04:00:00Z,26.6493,-81.8810,2.11,2.9,83.8,-9999.0,'1111122,1111122,1111122' 
SCCF RECON,ioos:station:SCCF:53:1,2015-02-01T04:15:00Z,26.6493,-81.8810,2.11,2.8,84.6,-9999.0,'1111122,1111122,1111122' 
SCCF RECON,ioos:station:SCCF:53:1,2015-02-01T04:30:00Z,26.6493,-81.8810,2.11,2.8,90.8,-9999.0,'1111122,1111122,1111122' 
SCCF RECON,ioos:station:SCCF:53:1,2015-02-01T04:45:00Z,26.6493,-81.8810,2.11,3.6,84.8,-9999.0,'1111122,1111122,1111122' 
SCCF RECON,ioos:station:SCCF:53:1,2015-02-01T05:00:00Z,26.6493,-81.8810,2.11,2.8,84.5,-9999.0,'1111122,1111122,1111122' 
SCCF RECON,ioos:station:SCCF:53:1,2015-02-01T05:15:00Z,26.6493,-81.8810,2.11,3.8,77.8,-9999.0,'1111122,1111122,1111122' 
SCCF RECON,ioos:station:SCCF:53:1,2015-02-01T05:30:00Z,26.6493,-81.8810,2.11,4.2,80.5,-9999.0,'1111122,1111122,1111122' 
SCCF RECON,ioos:station:SCCF:53:1,2015-02-01T05:45:00Z,26.6493,-81.8810,2.11,2.9,81.5,-9999.0,'1111122,1111122,1111122' 
SCCF RECON,ioos:station:SCCF:53:1,2015-02-01T06:00:00Z,26.6493,-81.8810,2.11,3.7,74.9,-9999.0,'1111122,1111122,1111122' 
SCCF RECON,ioos:station:SCCF:53:1,2015-02-01T06:15:00Z,26.6493,-81.8810,2.11,3.8,86.2,-9999.0,'1111122,1111122,1111122' 
SCCF RECON,ioos:station:SCCF:53:1,2015-02-01T06:30:00Z,26.6493,-81.8810,2.11,3.0,77.8,-9999.0,'1111122,1111122,1111122' 
SCCF RECON,ioos:station:SCCF:53:1,2015-02-01T06:45:00Z,26.6493,-81.8810,2.11,3.4,87.4,-9999.0,'1111122,1111122,1111122' 
SCCF RECON,ioos:station:SCCF:53:1,2015-02-01T07:00:00Z,26.6493,-81.8810,2.11,2.6,62.1,-9999.0,'1111122,1111122,1111122' 
SCCF RECON,ioos:station:SCCF:53:1,2015-02-01T07:15:00Z,26.6493,-81.8810,2.11,3.2,75.9,-9999.0,'1111122,1111122,1111122' 
SCCF RECON,ioos:station:SCCF:53:1,2015-02-01T07:30:00Z,26.6493,-81.8810,2.11,3.3,51.1,-9999.0,'1111122,1111122,1111122' 
SCCF RECON,ioos:station:SCCF:53:1,2015-02-01T07:45:00Z,26.6493,-81.8810,2.11,2.0,63.1,-9999.0,'1111122,1111122,1111122' 
SCCF RECON,ioos:station:SCCF:53:1,2015-02-01T08:00:00Z,26.6493,-81.8810,2.11,2.5,72.9,-9999.0,'1111122,1111122,1111122' 
SCCF RECON,ioos:station:SCCF:53:1,2015-02-01T08:15:00Z,26.6493,-81.8810,2.11,2.7,83.8,-9999.0,'1111122,1111122,1111122' 
SCCF RECON,ioos:station:SCCF:53:1,2015-02-01T08:30:00Z,26.6493,-81.8810,2.11,3.6,74.9,-9999.0,'1111122,1111122,1111122' 
SCCF RECON,ioos:station:SCCF:53:1,2015-02-01T08:45:00Z,26.6493,-81.8810,2.11,3.5,76.3,-9999.0,'1111122,1111122,1111122' 
SCCF RECON,ioos:station:SCCF:53:1,2015-02-01T09:00:00Z,26.6493,-81.8810,2.11,2.3,88.9,-9999.0,'1111122,1111122,1111122' 
SCCF RECON,ioos:station:SCCF:53:1,2015-02-01T09:15:00Z,26.6493,-81.8810,2.11,3.4,66.9,-9999.0,'1111122,1111122,1111122' 
SCCF RECON,ioos:station:SCCF:53:1,2015-02-01T09:30:00Z,26.6493,-81.8810,2.11,2.9,86.5,-9999.0,'1111122,1111122,1111122' 
SCCF RECON,ioos:station:SCCF:53:1,2015-02-01T09:45:00Z,26.6493,-81.8810,2.11,3.0,76.6,-9999.0,'1111122,1111122,1111122' 
SCCF RECON,ioos:station:SCCF:53:1,2015-02-01T10:00:00Z,26.6493,-81.8810,2.11,3.5,74.2,-9999.0,'1111122,1111122,1111122' 
SCCF RECON,ioos:station:SCCF:53:1,2015-02-01T10:15:00Z,26.6493,-81.8810,2.11,3.0,82.5,-9999.0,'1111122,1111122,1111122' 
SCCF RECON,ioos:station:SCCF:53:1,2015-02-01T10:30:00Z,26.6493,-81.8810,2.11,3.2,89.1,-9999.0,'1111122,1111122,1111122' 
SCCF RECON,ioos:station:SCCF:53:1,2015-02-01T10:45:00Z,26.6493,-81.8810,2.11,2.8,75.2,-9999.0,'1111122,1111122,1111122' 
SCCF RECON,ioos:station:SCCF:53:1,2015-02-01T11:00:00Z,26.6493,-81.8810,2.11,3.0,83.1,-9999.0,'1111122,1111122,1111122' 
SCCF RECON,ioos:station:SCCF:53:1,2015-02-01T11:15:00Z,26.6493,-81.8810,2.11,2.5,92.9,-9999.0,'1111122,1111122,1111122' 
SCCF RECON,ioos:station:SCCF:53:1,2015-02-01T11:30:00Z,26.6493,-81.8810,2.11,2.7,78.7,-9999.0,'1111122,1111122,1111122' 
SCCF RECON,ioos:station:SCCF:53:1,2015-02-01T11:45:00Z,26.6493,-81.8810,2.11,3.8,97.4,-9999.0,'1111122,1111122,1111122' 
SCCF RECON,ioos:station:SCCF:53:1,2015-02-01T12:00:00Z,26.6493,-81.8810,2.11,3.0,96.8,-9999.0,'1111122,1111122,1111122' 
SCCF RECON,ioos:station:SCCF:53:1,2015-02-01T12:15:00Z,26.6493,-81.8810,2.11,3.3,129.2,-9999.0,'1111122,1111122,1111122' 
SCCF RECON,ioos:station:SCCF:53:1,2015-02-01T12:30:00Z,26.6493,-81.8810,2.11,2.5,94.6,-9999.0,'1111122,1111122,1111122' 
SCCF RECON,ioos:station:SCCF:53:1,2015-02-01T12:45:00Z,26.6493,-81.8810,2.11,1.7,136.0,-9999.0,'1111122,1111122,1111122' 
SCCF RECON,ioos:station:SCCF:53:1,2015-02-01T13:00:00Z,26.6493,-81.8810,2.11,2.2,91.1,-9999.0,'1111122,1111122,1111122' 
SCCF RECON,ioos:station:SCCF:53:1,2015-02-01T13:15:00Z,26.6493,-81.8810,2.11,2.6,87.4,-9999.0,'1111122,1111122,1111122' 
SCCF RECON,ioos:station:SCCF:53:1,2015-02-01T13:30:00Z,26.6493,-81.8810,2.11,3.1,90.8,-9999.0,'1111122,1111122,1111122' 
SCCF RECON,ioos:station:SCCF:53:1,2015-02-01T13:45:00Z,26.6493,-81.8810,2.11,2.8,98.1,-9999.0,'1111122,1111122,1111122' 
SCCF RECON,ioos:station:SCCF:53:1,2015-02-01T14:00:00Z,26.6493,-81.8810,2.11,3.1,90.2,-9999.0,'1111122,1111122,1111122' 
SCCF RECON,ioos:station:SCCF:53:1,2015-02-01T14:15:00Z,26.6493,-81.8810,2.11,2.7,101.1,-9999.0,'1111122,1111122,1111122' 
SCCF RECON,ioos:station:SCCF:53:1,2015-02-01T14:30:00Z,26.6493,-81.8810,2.11,3.5,93.3,-9999.0,'1111122,1111122,1111122' 
SCCF RECON,ioos:station:SCCF:53:1,2015-02-01T14:45:00Z,26.6493,-81.8810,2.11,4.0,121.2,-9999.0,'1111122,1111122,1111122' 
SCCF RECON,ioos:station:SCCF:53:1,2015-02-01T15:00:00Z,26.6493,-81.8810,2.11,5.0,125.9,-9999.0,'1111122,1111122,1111122' 
SCCF RECON,ioos:station:SCCF:53:1,2015-02-01T15:15:00Z,26.6493,-81.8810,2.11,4.2,123.9,-9999.0,'1111122,1111122,1111122' 
SCCF RECON,ioos:station:SCCF:53:1,2015-02-01T15:30:00Z,26.6493,-81.8810,2.11,4.1,113.2,-9999.0,'1111122,1111122,1111122' 
SCCF RECON,ioos:station:SCCF:53:1,2015-02-01T15:45:00Z,26.6493,-81.8810,2.11,5.6,141.2,-9999.0,'1111122,1111122,1111122' 
SCCF RECON,ioos:station:SCCF:53:1,2015-02-01T16:00:00Z,26.6493,-81.8810,2.11,4.9,130.9,-9999.0,'1111122,1111122,1111122' 
SCCF RECON,ioos:station:SCCF:53:1,2015-02-01T16:15:00Z,26.6493,-81.8810,2.11,2.8,110.8,-9999.0,'1111122,1111122,1111122' 
SCCF RECON,ioos:station:SCCF:53:1,2015-02-01T16:30:00Z,26.6493,-81.8810,2.11,4.6,111.6,-9999.0,'1111122,1111122,1111122' 
SCCF RECON,ioos:station:SCCF:53:1,2015-02-01T16:45:00Z,26.6493,-81.8810,2.11,5.6,138.7,-9999.0,'1111122,1111122,1111122' 
SCCF RECON,ioos:station:SCCF:53:1,2015-02-01T17:00:00Z,26.6493,-81.8810,2.11,5.0,109.9,-9999.0,'1111122,1111122,1111122' 
SCCF RECON,ioos:station:SCCF:53:1,2015-02-01T17:15:00Z,26.6493,-81.8810,2.11,5.3,140.9,-9999.0,'1111122,1111122,1111122' 
SCCF RECON,ioos:station:SCCF:53:1,2015-02-01T17:30:00Z,26.6493,-81.8810,2.11,5.2,142.5,-9999.0,'1111122,1111122,1111122' 
SCCF RECON,ioos:station:SCCF:53:1,2015-02-01T17:45:00Z,26.6493,-81.8810,2.11,5.7,145.6,-9999.0,'1111122,1111122,1111122' 
SCCF RECON,ioos:station:SCCF:53:1,2015-02-01T18:00:00Z,26.6493,-81.8810,2.11,2.9,124.5,-9999.0,'1111122,1111122,1111122' 
SCCF RECON,ioos:station:SCCF:53:1,2015-02-01T18:15:00Z,26.6493,-81.8810,2.11,1.9,166.4,-9999.0,'1111122,1111122,1111122' 
SCCF RECON,ioos:station:SCCF:53:1,2015-02-01T18:30:00Z,26.6493,-81.8810,2.11,5.5,184.3,-9999.0,'1111122,1111122,1111122' 
SCCF RECON,ioos:station:SCCF:53:1,2015-02-01T18:45:00Z,26.6493,-81.8810,2.11,2.9,175.4,-9999.0,'1111122,1111122,1111122' 
SCCF RECON,ioos:station:SCCF:53:1,2015-02-01T19:00:00Z,26.6493,-81.8810,2.11,4.0,138.2,-9999.0,'1111122,1111122,1111122' 
SCCF RECON,ioos:station:SCCF:53:1,2015-02-01T19:15:00Z,26.6493,-81.8810,2.11,5.9,138.1,-9999.0,'1111122,1111122,1111122' 
SCCF RECON,ioos:station:SCCF:53:1,2015-02-01T19:30:00Z,26.6493,-81.8810,2.11,7.2,144.0,-9999.0,'1111122,1111122,1111122' 
SCCF RECON,ioos:station:SCCF:53:1,2015-02-01T19:45:00Z,26.6493,-81.8810,2.11,4.2,157.6,-9999.0,'1111122,1111122,1111122' 
SCCF RECON,ioos:station:SCCF:53:1,2015-02-01T20:00:00Z,26.6493,-81.8810,2.11,3.8,182.6,-9999.0,'1111122,1111122,1111122' 
SCCF RECON,ioos:station:SCCF:53:1,2015-02-01T20:15:00Z,26.6493,-81.8810,2.11,4.2,154.8,-9999.0,'1111122,1111122,1111122' 
SCCF RECON,ioos:station:SCCF:53:1,2015-02-01T20:30:00Z,26.6493,-81.8810,2.11,4.1,184.7,-9999.0,'1111122,1111122,1111122' 
SCCF RECON,ioos:station:SCCF:53:1,2015-02-01T20:45:00Z,26.6493,-81.8810,2.11,4.6,150.1,-9999.0,'1111122,1111122,1111122' 
SCCF RECON,ioos:station:SCCF:53:1,2015-02-01T21:00:00Z,26.6493,-81.8810,2.11,5.0,187.2,-9999.0,'1111122,1111122,1111122' 
SCCF RECON,ioos:station:SCCF:53:1,2015-02-01T21:15:00Z,26.6493,-81.8810,2.11,5.8,214.6,-9999.0,'1111122,1111122,1111122' 
SCCF RECON,ioos:station:SCCF:53:1,2015-02-01T21:30:00Z,26.6493,-81.8810,2.11,5.5,217.3,-9999.0,'1111122,1111122,1111122' 
SCCF RECON,ioos:station:SCCF:53:1,2015-02-01T21:45:00Z,26.6493,-81.8810,2.11,5.0,227.9,-9999.0,'1111122,1111122,1111122' 
SCCF RECON,ioos:station:SCCF:53:1,2015-02-01T22:00:00Z,26.6493,-81.8810,2.11,3.8,222.2,-9999.0,'1111122,1111122,1111122' 
SCCF RECON,ioos:station:SCCF:53:1,2015-02-01T22:15:00Z,26.6493,-81.8810,2.11,4.3,207.4,-9999.0,'1111122,1111122,1111122' 
SCCF RECON,ioos:station:SCCF:53:1,2015-02-01T22:30:00Z,26.6493,-81.8810,2.11,4.1,205.0,-9999.0,'1111122,1111122,1111122' 
SCCF RECON,ioos:station:SCCF:53:1,2015-02-01T22:45:00Z,26.6493,-81.8810,2.11,5.8,195.3,-9999.0,'1111122,1111122,1111122' 
SCCF RECON,ioos:station:SCCF:53:1,2015-02-01T23:00:00Z,26.6493,-81.8810,2.11,4.4,195.2,-9999.0,'1111122,1111122,1111122' 
SCCF RECON,ioos:station:SCCF:53:1,2015-02-01T23:15:00Z,26.6493,-81.8810,2.11,3.7,202.9,-9999.0,'1111122,1111122,1111122' 
SCCF RECON,ioos:station:SCCF:53:1,2015-02-01T23:30:00Z,26.6493,-81.8810,2.11,3.2,188.7,-9999.0,'1111122,1111122,1111122' 
SCCF RECON,ioos:station:SCCF:53:1,2015-02-01T23:45:00Z,26.6493,-81.8810,2.11,2.4,192.8,-9999.0,'1111122,1111122,1111122' 
SCCF RECON,ioos:station:SCCF:53:1,2015-02-02T00:00:00Z,26.6493,-81.8810,2.11,1.2,182.2,-9999.0,'1111122,1111122,1111122' 
SCCF RECON,ioos:station:SCCF:53:1,2015-02-02T00:15:00Z,26.6493,-81.8810,2.11,1.7,146.3,-9999.0,'1111122,1111122,1111122' 
SCCF RECON,ioos:station:SCCF:53:1,2015-02-02T00:30:00Z,26.6493,-81.8810,2.11,2.2,146.1,-9999.0,'1111122,1111122,1111122' 
SCCF RECON,ioos:station:SCCF:53:1,2015-02-02T00:45:00Z,26.6493,-81.8810,2.11,3.1,139.7,-9999.0,'1111122,1111122,1111122' 
SCCF RECON,ioos:station:SCCF:53:1,2015-02-02T01:00:00Z,26.6493,-81.8810,2.11,2.8,149.8,-9999.0,'1111122,1111122,1111122' 
SCCF RECON,ioos:station:SCCF:53:1,2015-02-02T01:15:00Z,26.6493,-81.8810,2.11,2.9,145.7,-9999.0,'1111122,1111122,1111122' 
SCCF RECON,ioos:station:SCCF:53:1,2015-02-02T01:30:00Z,26.6493,-81.8810,2.11,1.8,132.9,-9999.0,'1111122,1111122,1111122' 
SCCF RECON,ioos:station:SCCF:53:1,2015-02-02T01:45:00Z,26.6493,-81.8810,2.11,2.0,165.8,-9999.0,'1111122,1111122,1111122' 
SCCF RECON,ioos:station:SCCF:53:1,2015-02-02T02:00:00Z,26.6493,-81.8810,2.11,2.5,157.3,-9999.0,'1111122,1111122,1111122' 
SCCF RECON,ioos:station:SCCF:53:1,2015-02-02T02:15:00Z,26.6493,-81.8810,2.11,3.3,157.4,-9999.0,'1111122,1111122,1111122' 
SCCF RECON,ioos:station:SCCF:53:1,2015-02-02T02:30:00Z,26.6493,-81.8810,2.11,3.4,166.1,-9999.0,'1111122,1111122,1111122' 
SCCF RECON,ioos:station:SCCF:53:1,2015-02-02T02:45:00Z,26.6493,-81.8810,2.11,4.3,140.2,-9999.0,'1111122,1111122,1111122' 
SCCF RECON,ioos:station:SCCF:53:1,2015-02-02T03:00:00Z,26.6493,-81.8810,2.11,3.0,158.5,-9999.0,'1111122,1111122,1111122' 
SCCF RECON,ioos:station:SCCF:53:1,2015-02-02T03:15:00Z,26.6493,-81.8810,2.11,2.8,146.0,-9999.0,'1111122,1111122,1111122' 
SCCF RECON,ioos:station:SCCF:53:1,2015-02-02T03:30:00Z,26.6493,-81.8810,2.11,2.3,142.5,-9999.0,'1111122,1111122,1111122' 
SCCF RECON,ioos:station:SCCF:53:1,2015-02-02T03:45:00Z,26.6493,-81.8810,2.11,1.2,161.6,-9999.0,'1111122,1111122,1111122' 
SCCF RECON,ioos:station:SCCF:53:1,2015-02-02T04:00:00Z,26.6493,-81.8810,2.11,2.3,146.7,-9999.0,'1111122,1111122,1111122' 
SCCF RECON,ioos:station:SCCF:53:1,2015-02-02T04:15:00Z,26.6493,-81.8810,2.11,1.4,143.8,-9999.0,'1111122,1111122,1111122' 
SCCF RECON,ioos:station:SCCF:53:1,2015-02-02T04:30:00Z,26.6493,-81.8810,2.11,1.7,143.3,-9999.0,'1111122,1111122,1111122' 
SCCF RECON,ioos:station:SCCF:53:1,2015-02-02T04:45:00Z,26.6493,-81.8810,2.11,0.4,151.3,-9999.0,'1111122,1111122,1111122' 
SCCF RECON,ioos:station:SCCF:53:1,2015-02-02T05:00:00Z,26.6493,-81.8810,2.11,1.1,145.0,-9999.0,'1111122,1111122,1111122' 
SCCF RECON,ioos:station:SCCF:53:1,2015-02-02T05:15:00Z,26.6493,-81.8810,2.11,1.3,156.5,-9999.0,'1111122,1111122,1111122' 
SCCF RECON,ioos:station:SCCF:53:1,2015-02-02T05:30:00Z,26.6493,-81.8810,2.11,1.3,162.5,-9999.0,'1111122,1111122,1111122' 
SCCF RECON,ioos:station:SCCF:53:1,2015-02-02T05:45:00Z,26.6493,-81.8810,2.11,1.3,153.4,-9999.0,'1111122,1111122,1111122' 
SCCF RECON,ioos:station:SCCF:53:1,2015-02-02T06:00:00Z,26.6493,-81.8810,2.11,1.1,141.4,-9999.0,'1111122,1111122,1111122' 
SCCF RECON,ioos:station:SCCF:53:1,2015-02-02T06:15:00Z,26.6493,-81.8810,2.11,1.2,156.4,-9999.0,'1111122,1111122,1111122' 
SCCF RECON,ioos:station:SCCF:53:1,2015-02-02T06:30:00Z,26.6493,-81.8810,2.11,1.5,144.6,-9999.0,'1111122,1111122,1111122' 
SCCF RECON,ioos:station:SCCF:53:1,2015-02-02T06:45:00Z,26.6493,-81.8810,2.11,1.6,143.0,-9999.0,'1111122,1111122,1111122' 
SCCF RECON,ioos:station:SCCF:53:1,2015-02-02T07:00:00Z,26.6493,-81.8810,2.11,1.7,147.7,-9999.0,'1111122,1111122,1111122' 
SCCF RECON,ioos:station:SCCF:53:1,2015-02-02T07:15:00Z,26.6493,-81.8810,2.11,2.7,153.4,-9999.0,'1111122,1111122,1111122' 
SCCF RECON,ioos:station:SCCF:53:1,2015-02-02T07:30:00Z,26.6493,-81.8810,2.11,2.2,144.8,-9999.0,'1111122,1111122,1111122' 
SCCF RECON,ioos:station:SCCF:53:1,2015-02-02T07:45:00Z,26.6493,-81.8810,2.11,2.2,162.2,-9999.0,'1111122,1111122,1111122' 
SCCF RECON,ioos:station:SCCF:53:1,2015-02-02T08:00:00Z,26.6493,-81.8810,2.11,2.6,161.4,-9999.0,'1111122,1111122,1111122' 
SCCF RECON,ioos:station:SCCF:53:1,2015-02-02T08:15:00Z,26.6493,-81.8810,2.11,2.9,164.6,-9999.0,'1111122,1111122,1111122' 
SCCF RECON,ioos:station:SCCF:53:1,2015-02-02T08:30:00Z,26.6493,-81.8810,2.11,3.6,172.1,-9999.0,'1111122,1111122,1111122' 
SCCF RECON,ioos:station:SCCF:53:1,2015-02-02T08:45:00Z,26.6493,-81.8810,2.11,3.2,186.3,-9999.0,'1111122,1111122,1111122' 
SCCF RECON,ioos:station:SCCF:53:1,2015-02-02T09:00:00Z,26.6493,-81.8810,2.11,1.7,192.2,-9999.0,'1111122,1111122,1111122' 
SCCF RECON,ioos:station:SCCF:53:1,2015-02-02T09:15:00Z,26.6493,-81.8810,2.11,3.2,193.8,-9999.0,'1111122,1111122,1111122' 
SCCF RECON,ioos:station:SCCF:53:1,2015-02-02T09:30:00Z,26.6493,-81.8810,2.11,2.3,190.0,-9999.0,'1111122,1111122,1111122' 
SCCF RECON,ioos:station:SCCF:53:1,2015-02-02T09:45:00Z,26.6493,-81.8810,2.11,2.7,193.6,-9999.0,'1111122,1111122,1111122' 
SCCF RECON,ioos:station:SCCF:53:1,2015-02-02T10:00:00Z,26.6493,-81.8810,2.11,2.4,185.8,-9999.0,'1111122,1111122,1111122' 
SCCF RECON,ioos:station:SCCF:53:1,2015-02-02T10:15:00Z,26.6493,-81.8810,2.11,2.5,184.2,-9999.0,'1111122,1111122,1111122' 
SCCF RECON,ioos:station:SCCF:53:1,2015-02-02T10:30:00Z,26.6493,-81.8810,2.11,2.5,182.4,-9999.0,'1111122,1111122,1111122' 
SCCF RECON,ioos:station:SCCF:53:1,2015-02-02T10:45:00Z,26.6493,-81.8810,2.11,2.2,182.9,-9999.0,'1111122,1111122,1111122' 
SCCF RECON,ioos:station:SCCF:53:1,2015-02-02T11:00:00Z,26.6493,-81.8810,2.11,2.5,172.1,-9999.0,'1111122,1111122,1111122' 
SCCF RECON,ioos:station:SCCF:53:1,2015-02-02T11:15:00Z,26.6493,-81.8810,2.11,1.3,155.5,-9999.0,'1111122,1111122,1111122' 
SCCF RECON,ioos:station:SCCF:53:1,2015-02-02T11:30:00Z,26.6493,-81.8810,2.11,1.6,208.8,-9999.0,'1111122,1111122,1111122' 
SCCF RECON,ioos:station:SCCF:53:1,2015-02-02T11:45:00Z,26.6493,-81.8810,2.11,1.0,199.0,-9999.0,'1111122,1111122,1111122' 
SCCF RECON,ioos:station:SCCF:53:1,2015-02-02T12:00:00Z,26.6493,-81.8810,2.11,1.4,198.2,-9999.0,'1111122,1111122,1111122' 
SCCF RECON,ioos:station:SCCF:53:1,2015-02-02T12:15:00Z,26.6493,-81.8810,2.11,2.0,204.7,-9999.0,'1111122,1111122,1111122' 
SCCF RECON,ioos:station:SCCF:53:1,2015-02-02T12:30:00Z,26.6493,-81.8810,2.11,1.8,198.0,-9999.0,'1111122,1111122,1111122' 
SCCF RECON,ioos:station:SCCF:53:1,2015-02-02T12:45:00Z,26.6493,-81.8810,2.11,1.9,196.8,-9999.0,'1111122,1111122,1111122' 
SCCF RECON,ioos:station:SCCF:53:1,2015-02-02T13:00:00Z,26.6493,-81.8810,2.11,2.9,179.2,-9999.0,'1111122,1111122,1111122' 
SCCF RECON,ioos:station:SCCF:53:1,2015-02-02T13:15:00Z,26.6493,-81.8810,2.11,3.0,189.3,-9999.0,'1111122,1111122,1111122' 
SCCF RECON,ioos:station:SCCF:53:1,2015-02-02T13:30:00Z,26.6493,-81.8810,2.11,3.7,193.2,-9999.0,'1111122,1111122,1111122' 
SCCF RECON,ioos:station:SCCF:53:1,2015-02-02T13:45:00Z,26.6493,-81.8810,2.11,4.3,205.6,-9999.0,'1111122,1111122,1111122' 
SCCF RECON,ioos:station:SCCF:53:1,2015-02-02T14:00:00Z,26.6493,-81.8810,2.11,5.5,199.2,-9999.0,'1111122,1111122,1111122' 
SCCF RECON,ioos:station:SCCF:53:1,2015-02-02T14:15:00Z,26.6493,-81.8810,2.11,4.1,201.2,-9999.0,'1111122,1111122,1111122' 
SCCF RECON,ioos:station:SCCF:53:1,2015-02-02T14:30:00Z,26.6493,-81.8810,2.11,6.1,201.0,-9999.0,'1111122,1111122,1111122' 
SCCF RECON,ioos:station:SCCF:53:1,2015-02-02T14:45:00Z,26.6493,-81.8810,2.11,5.9,207.8,-9999.0,'1111122,1111122,1111122' 
SCCF RECON,ioos:station:SCCF:53:1,2015-02-02T15:00:00Z,26.6493,-81.8810,2.11,5.4,208.4,-9999.0,'1111122,1111122,1111122' 
SCCF RECON,ioos:station:SCCF:53:1,2015-02-02T15:15:00Z,26.6493,-81.8810,2.11,5.1,208.8,-9999.0,'1111122,1111122,1111122' 
SCCF RECON,ioos:station:SCCF:53:1,2015-02-02T15:30:00Z,26.6493,-81.8810,2.11,5.5,216.3,-9999.0,'1111122,1111122,1111122' 
SCCF RECON,ioos:station:SCCF:53:1,2015-02-02T15:45:00Z,26.6493,-81.8810,2.11,6.4,221.9,-9999.0,'1111122,1111122,1111122' 
SCCF RECON,ioos:station:SCCF:53:1,2015-02-02T16:00:00Z,26.6493,-81.8810,2.11,6.3,213.3,-9999.0,'1111122,1111122,1111122' 
SCCF RECON,ioos:station:SCCF:53:1,2015-02-02T16:15:00Z,26.6493,-81.8810,2.11,5.7,211.7,-9999.0,'1111122,1111122,1111122' 
SCCF RECON,ioos:station:SCCF:53:1,2015-02-02T16:30:00Z,26.6493,-81.8810,2.11,5.6,214.1,-9999.0,'1111122,1111122,1111122' 
SCCF RECON,ioos:station:SCCF:53:1,2015-02-02T16:45:00Z,26.6493,-81.8810,2.11,6.6,213.0,-9999.0,'1111122,1111122,1111122' 
SCCF RECON,ioos:station:SCCF:53:1,2015-02-02T17:00:00Z,26.6493,-81.8810,2.11,6.8,215.3,-9999.0,'1111122,1111122,1111122' 
SCCF RECON,ioos:station:SCCF:53:1,2015-02-02T17:15:00Z,26.6493,-81.8810,2.11,6.1,223.2,-9999.0,'1111122,1111122,1111122' 
SCCF RECON,ioos:station:SCCF:53:1,2015-02-02T17:30:00Z,26.6493,-81.8810,2.11,4.6,244.2,-9999.0,'1111122,1111122,1111122' 
SCCF RECON,ioos:station:SCCF:53:1,2015-02-02T17:45:00Z,26.6493,-81.8810,2.11,7.0,260.3,-9999.0,'1111122,1111122,1111122' 
SCCF RECON,ioos:station:SCCF:53:1,2015-02-02T18:00:00Z,26.6493,-81.8810,2.11,5.8,245.2,-9999.0,'1111122,1111122,1111122' 
SCCF RECON,ioos:station:SCCF:53:1,2015-02-02T18:15:00Z,26.6493,-81.8810,2.11,4.4,229.1,-9999.0,'1111122,1111122,1111122' 
SCCF RECON,ioos:station:SCCF:53:1,2015-02-02T18:30:00Z,26.6493,-81.8810,2.11,5.9,228.0,-9999.0,'1111122,1111122,1111122' 
SCCF RECON,ioos:station:SCCF:53:1,2015-02-02T18:45:00Z,26.6493,-81.8810,2.11,5.7,205.0,-9999.0,'1111122,1111122,1111122' 
SCCF RECON,ioos:station:SCCF:53:1,2015-02-02T19:00:00Z,26.6493,-81.8810,2.11,6.7,199.3,-9999.0,'1111122,1111122,1111122' 
SCCF RECON,ioos:station:SCCF:53:1,2015-02-02T19:15:00Z,26.6493,-81.8810,2.11,4.5,204.0,-9999.0,'1111122,1111122,1111122' 
SCCF RECON,ioos:station:SCCF:53:1,2015-02-02T19:30:00Z,26.6493,-81.8810,2.11,5.0,202.9,-9999.0,'1111122,1111122,1111122' 
SCCF RECON,ioos:station:SCCF:53:1,2015-02-02T19:45:00Z,26.6493,-81.8810,2.11,8.1,216.7,-9999.0,'1111122,1111122,1111122' 
SCCF RECON,ioos:station:SCCF:53:1,2015-02-02T20:00:00Z,26.6493,-81.8810,2.11,6.7,212.7,-9999.0,'1111122,1111122,1111122' 
SCCF RECON,ioos:station:SCCF:53:1,2015-02-02T20:15:00Z,26.6493,-81.8810,2.11,6.0,207.5,-9999.0,'1111122,1111122,1111122' 
SCCF RECON,ioos:station:SCCF:53:1,2015-02-02T20:30:00Z,26.6493,-81.8810,2.11,5.4,239.6,-9999.0,'1111122,1111122,1111122' 
SCCF RECON,ioos:station:SCCF:53:1,2015-02-02T20:45:00Z,26.6493,-81.8810,2.11,5.4,231.8,-9999.0,'1111122,1111122,1111122' 
SCCF RECON,ioos:station:SCCF:53:1,2015-02-02T21:00:00Z,26.6493,-81.8810,2.11,5.0,236.2,-9999.0,'1111122,1111122,1111122' 
SCCF RECON,ioos:station:SCCF:53:1,2015-02-02T21:15:00Z,26.6493,-81.8810,2.11,5.3,249.8,-9999.0,'1111122,1111122,1111122' 
SCCF RECON,ioos:station:SCCF:53:1,2015-02-02T21:30:00Z,26.6493,-81.8810,2.11,9.2,293.0,-9999.0,'1111122,1111122,1111122' 
SCCF RECON,ioos:station:SCCF:53:1,2015-02-02T21:45:00Z,26.6493,-81.8810,2.11,5.0,288.6,-9999.0,'1111122,1111122,1111122' 
SCCF RECON,ioos:station:SCCF:53:1,2015-02-02T22:00:00Z,26.6493,-81.8810,2.11,3.3,288.3,-9999.0,'1111122,1111122,1111122' 
SCCF RECON,ioos:station:SCCF:53:1,2015-02-02T22:15:00Z,26.6493,-81.8810,2.11,1.7,268.0,-9999.0,'1111122,1111122,1111122' 
SCCF RECON,ioos:station:SCCF:53:1,2015-02-02T22:30:00Z,26.6493,-81.8810,2.11,2.0,265.2,-9999.0,'1111122,1111122,1111122' 
SCCF RECON,ioos:station:SCCF:53:1,2015-02-02T22:45:00Z,26.6493,-81.8810,2.11,1.9,286.2,-9999.0,'1111122,1111122,1111122' 
SCCF RECON,ioos:station:SCCF:53:1,2015-02-02T23:00:00Z,26.6493,-81.8810,2.11,2.5,288.0,-9999.0,'1111122,1111122,1111122' 
SCCF RECON,ioos:station:SCCF:53:1,2015-02-02T23:15:00Z,26.6493,-81.8810,2.11,4.5,288.8,-9999.0,'1111122,1111122,1111122' 
SCCF RECON,ioos:station:SCCF:53:1,2015-02-02T23:30:00Z,26.6493,-81.8810,2.11,1.9,313.7,-9999.0,'1111122,1111122,1111122' 
SCCF RECON,ioos:station:SCCF:53:1,2015-02-02T23:45:00Z,26.6493,-81.8810,2.11,2.7,280.2,-9999.0,'1111122,1111122,1111122' 
SCCF RECON,ioos:station:SCCF:53:1,2015-02-03T00:00:00Z,26.6493,-81.8810,2.11,2.3,268.0,-9999.0,'1111122,1111122,1111122' 
SCCF RECON,ioos:station:SCCF:53:1,2015-02-03T00:15:00Z,26.6493,-81.8810,2.11,2.8,285.5,-9999.0,'1111122,1111122,1111122' 
SCCF RECON,ioos:station:SCCF:53:1,2015-02-03T00:30:00Z,26.6493,-81.8810,2.11,4.0,327.7,-9999.0,'1111122,1111122,1111122' 
SCCF RECON,ioos:station:SCCF:53:1,2015-02-03T00:45:00Z,26.6493,-81.8810,2.11,3.0,330.6,-9999.0,'1111122,1111122,1111122' 